{"data":{"norad_id":69168,"intl_designator":"2026-111W","name":"STARLINK-37469","alt_names":[],"object_type":"PAYLOAD","status":"ACTIVE","operator":null,"country":"US","launch_date":"2026-05-21","launch_site_code":"AFETR","launch_vehicle":null,"mission":null,"orbit_class":"UNKNOWN","rcs_meters":null,"size_class":null,"mass_kg":null,"dimensions":null,"purposes":["comms"],"wikipedia_slug":null,"has_3d_model":false,"image_url":null,"decayed_at":null,"tle_current":{"epoch":"2026-09-19T19:18:56.411712Z","epoch_age_seconds":87089,"freshness":"FRESH","line1":"1 69168U 26111W   26262.80481958  .00020505  00000+0  61637-3 0  9999","line2":"2 69168  53.1590  68.8829 0001156  81.5281 278.5853 15.34399241 18798","mean_motion":15.34399241,"eccentricity":0.0001156,"inclination_deg":53.159,"raan_deg":68.8829,"arg_perigee_deg":81.5281,"mean_anomaly_deg":278.5853,"bstar":0.00061637,"rev_number":1879,"period_min":93.847804503704,"perigee_km":461.91469472344,"apogee_km":463.49629750854,"semimajor_km":6840.842496116,"source":"CELESTRAK","updated_at":"2026-09-20T09:00:44.093569Z"}}}